| time (UTC) | temp F | wind direction | speed knots | gust knots | rain 1hr in | rain 24hr in | rain mn in | humidity % | barometer mb |
| 20260510033550 | 76 | 39 | 4.3 | 5.2 | 0.00 | 0.01 | 0.00 | 79 | |
| 20260510033050 | 76 | 35 | 3.5 | 4.3 | 0.00 | 0.01 | 0.00 | 80 | |
| 20260510032610 | 75 | 38 | 3.5 | 4.3 | 0.00 | 0.01 | 0.00 | 82 | |
| 20260510032050 | 76 | 28 | 2.6 | 3.5 | 0.00 | 0.01 | 0.00 | 83 | |
| 20260510031610 | 76 | 38 | 3.5 | 3.5 | 0.00 | 0.01 | 0.00 | 82 | |
| 20260510031050 | 76 | 31 | 3.5 | 4.3 | 0.00 | 0.01 | 0.00 | 79 | |
| 20260510030551 | 76 | 32 | 2.6 | 3.5 | 0.00 | 0.01 | 0.00 | 77 | |
| 20260510030050 | 76 | 36 | 2.6 | 3.5 | 0.00 | 0.01 | 0.00 | 77 | |
| 20260510025550 | 76 | 26 | 2.6 | 3.5 | 0.00 | 0.01 | 0.00 | 77 | |
| 20260510025050 | 76 | 34 | 2.6 | 3.5 | 0.00 | 0.01 | 0.00 | 76 | |
| 20260510024550 | 76 | 61 | 2.6 | 3.5 | 0.00 | 0.01 | 0.00 | 74 | |
| 20260510024051 | 76 | 34 | 2.6 | 3.5 | 0.00 | 0.01 | 0.00 | 72 | |
| 20260510023551 | 77 | 49 | 3.5 | 4.3 | 0.00 | 0.01 | 0.00 | 71 | |
| 20260510023051 | 77 | 265 | 0.9 | 1.7 | 0.00 | 0.01 | 0.00 | 71 | |
| 20260510022551 | 77 | 244 | 0.9 | 1.7 | 0.00 | 0.01 | 0.00 | 69 | |
| 20260510022051 | 78 | 232 | 1.7 | 3.5 | 0.00 | 0.01 | 0.00 | 69 | |
| 20260510021551 | 78 | 242 | 1.7 | 2.6 | 0.00 | 0.01 | 0.00 | 69 | |
| 20260510021051 | 78 | 225 | 0.9 | 1.7 | 0.00 | 0.01 | 0.00 | 69 | |
| 20260510020611 | 78 | 232 | 1.7 | 1.7 | 0.00 | 0.01 | 0.00 | 69 | |
| 20260510020051 | 78 | 219 | 1.7 | 2.6 | 0.00 | 0.01 | 0.00 | 70 | |
| 20260510015552 | 79 | 219 | 1.7 | 1.7 | 0.00 | 0.01 | 0.00 | 70 | |
| 20260510015112 | 79 | 240 | 0.9 | 1.7 | 0.00 | 0.01 | 0.00 | 69 | |
| 20260510014551 | 80 | 206 | 1.7 | 2.6 | 0.00 | 0.01 | 0.00 | 67 | |
| 20260510014052 | 80 | 171 | 2.6 | 3.5 | 0.00 | 0.01 | 0.00 | 66 | |
| 20260510013613 | 80 | 48 | 1.7 | 2.6 | 0.00 | 0.01 | 0.00 | 65 | |
| 20260510013052 | 81 | 36 | 2.6 | 2.6 | 0.00 | 0.01 | 0.00 | 65 | |
| 20260510012552 | 81 | 38 | 1.7 | 2.6 | 0.00 | 0.01 | 0.00 | 64 | |
| 20260510012053 | 80 | 192 | 1.7 | 3.5 | 0.00 | 0.01 | 0.00 | 64 | |
| 20260510011552 | 80 | 216 | 3.5 | 4.3 | 0.00 | 0.01 | 0.00 | 65 | |
| 20260510011052 | 80 | 127 | 5.2 | 7.0 | 0.00 | 0.01 | 0.00 | 66 | |
| 20260510010552 | 80 | 108 | 6.1 | 7.0 | 0.00 | 0.01 | 0.00 | 64 | |
| 20260510010052 | 80 | 102 | 4.3 | 7.0 | 0.00 | 0.01 | 0.00 | 59 | |
| 20260510005552 | 80 | 99 | 3.5 | 5.2 | 0.00 | 0.01 | 0.00 | 59 | |
| 20260510005052 | 80 | 77 | 3.5 | 4.3 | 0.00 | 0.01 | 0.00 | 59 | |
| 20260510004552 | 80 | 38 | 2.6 | 3.5 | 0.00 | 0.01 | 0.00 | 60 | |
| 20260510004052 | 80 | 74 | 3.5 | 4.3 | 0.00 | 0.01 | 0.00 | 59 | |
| 20260510003552 | 80 | 41 | 4.3 | 5.2 | 0.00 | 0.01 | 0.00 | 60 | |
| 20260510003052 | 80 | 35 | 4.3 | 5.2 | 0.00 | 0.01 | 0.00 | 61 | |
| 20260510002552 | 80 | 29 | 4.3 | 6.1 | 0.00 | 0.01 | 0.00 | 62 | |
| 20260510002052 | 80 | 38 | 4.3 | 4.3 | 0.00 | 0.01 | 0.00 | 61 | |
| 20260510001634 | 80 | 44 | 3.5 | 3.5 | 0.00 | 0.01 | 0.00 | 63 | |
| 20260510001133 | 80 | 56 | 3.5 | 3.5 | 0.00 | 0.01 | 0.00 | 62 | |
| 20260510000553 | 80 | 52 | 2.6 | 3.5 | 0.00 | 0.01 | 0.00 | 64 | |
| 20260510000053 | 79 | 128 | 4.3 | 4.3 | 0.00 | 0.01 | 0.00 | 64 | |
| 20260509235553 | 80 | 121 | 4.3 | 4.3 | 0.00 | 0.01 | 0.01 | 65 | |
| 20260509235054 | 83 | 108 | 4.3 | 5.2 | 0.00 | 0.01 | 0.01 | 61 | |
| 20260509234553 | 86 | 51 | 5.2 | 7.0 | 0.00 | 0.01 | 0.01 | 56 | |
| 20260509234053 | 88 | 44 | 4.3 | 5.2 | 0.00 | 0.01 | 0.01 | 60 | |
| 20260509233554 | 88 | 325 | 0.9 | 0.9 | 0.00 | 0.01 | 0.01 | 65 | |
| 20260509233053 | 89 | 285 | 0.9 | 0.9 | 0.00 | 0.01 | 0.01 | 64 | |
| 20260509232553 | 88 | 325 | 0.9 | 0.9 | 0.00 | 0.01 | 0.01 | 63 | |
| 20260509232053 | 89 | 288 | 0.9 | 0.9 | 0.00 | 0.01 | 0.01 | 64 | |
| 20260509231553 | 89 | 267 | 0.9 | 0.9 | 0.00 | 0.01 | 0.01 | 64 | |
| 20260509231054 | 89 | 283 | 0.9 | 0.9 | 0.00 | 0.01 | 0.01 | 63 | |
| 20260509230554 | 89 | 255 | 0.9 | 0.9 | 0.00 | 0.01 | 0.01 | 63 | |
| 20260509230054 | 90 | 266 | 0.9 | 0.9 | 0.00 | 0.01 | 0.01 | 63 | |
| 20260509225614 | 90 | 268 | 0.9 | 0.9 | 0.00 | 0.01 | 0.01 | 62 | |
| 20260509225054 | 91 | 289 | 0.9 | 0.9 | 0.00 | 0.01 | 0.01 | 61 | |
| 20260509224554 | 91 | 307 | 0.9 | 1.7 | 0.00 | 0.01 | 0.01 | 61 | |
| 20260509224054 | 92 | 263 | 0.9 | 0.9 | 0.00 | 0.01 | 0.01 | 60 | |
| 20260509223554 | 93 | 253 | 0.9 | 1.7 | 0.00 | 0.01 | 0.01 | 59 | |
| 20260509223054 | 93 | 174 | 0.9 | 0.9 | 0.00 | 0.01 | 0.01 | 57 | |
| 20260509222554 | 92 | 87 | 0.9 | 1.7 | 0.00 | 0.01 | 0.01 | 58 | |
| 20260509222054 | 92 | 67 | 1.7 | 2.6 | 0.00 | 0.01 | 0.01 | 59 | |
| 20260509221555 | 92 | 72 | 1.7 | 1.7 | 0.00 | 0.01 | 0.01 | 60 | |
| 20260509221055 | 93 | 77 | 1.7 | 2.6 | 0.00 | 0.01 | 0.01 | 58 | |
| 20260509220555 | 93 | 120 | 1.7 | 1.7 | 0.00 | 0.01 | 0.01 | 59 | |
| 20260509220055 | 93 | 119 | 0.9 | 1.7 | 0.00 | 0.01 | 0.01 | 60 | |
| 20260509215555 | 93 | 163 | 0.9 | 1.7 | 0.00 | 0.01 | 0.01 | 59 | |
| 20260509215115 | 92 | 122 | 0.9 | 1.7 | 0.00 | 0.01 | 0.01 | 60 | |
| 20260509214555 | 91 | 175 | 0.9 | 0.9 | 0.00 | 0.01 | 0.01 | 62 | |
| 20260509214055 | 92 | 168 | 0.9 | 1.7 | 0.00 | 0.01 | 0.01 | 61 | |
| 20260509213556 | 92 | 109 | 1.7 | 1.7 | 0.00 | 0.01 | 0.01 | 60 | |
| 20260509213055 | 93 | 115 | 1.7 | 2.6 | 0.00 | 0.01 | 0.01 | 60 | |
| 20260509212555 | 93 | 136 | 0.9 | 1.7 | 0.00 | 0.01 | 0.01 | 60 | |
| 20260509212055 | 92 | 136 | 0.9 | 0.9 | 0.00 | 0.01 | 0.01 | 61 | |
| 20260509211556 | 92 | 128 | 0.9 | 1.7 | 0.00 | 0.01 | 0.01 | 61 | |
| 20260509211056 | 92 | 97 | 0.9 | 1.7 | 0.00 | 0.01 | 0.01 | 61 | |
| 20260509210556 | 91 | 133 | 0.9 | 1.7 | 0.00 | 0.01 | 0.01 | 62 | |
| 20260509210056 | 91 | 110 | 0.9 | 0.9 | 0.00 | 0.01 | 0.01 | 61 | |
| 20260509205556 | 92 | 136 | 0.9 | 0.9 | 0.00 | 0.01 | 0.01 | 62 | |
| 20260509205056 | 92 | 137 | 0.9 | 0.9 | 0.00 | 0.01 | 0.01 | 61 | |
| 20260509204556 | 92 | 138 | 0.9 | 0.9 | 0.00 | 0.01 | 0.01 | 63 | |
| 20260509204056 | 92 | 137 | 0.9 | 0.9 | 0.00 | 0.01 | 0.01 | 63 | |
| 20260509203556 | 92 | 138 | 0.9 | 0.9 | 0.00 | 0.01 | 0.01 | 62 | |
| 20260509203056 | 92 | 131 | 0.9 | 0.9 | 0.00 | 0.01 | 0.01 | 64 | |
| 20260509202556 | 91 | 136 | 1.7 | 1.7 | 0.00 | 0.01 | 0.01 | 64 | |
| 20260509202056 | 91 | 169 | 1.7 | 1.7 | 0.00 | 0.01 | 0.01 | 66 | |
| 20260509201556 | 90 | 196 | 1.7 | 2.6 | 0.00 | 0.01 | 0.01 | 67 | |
| 20260509201056 | 91 | 64 | 1.7 | 2.6 | 0.00 | 0.01 | 0.01 | 65 | |
| 20260509200557 | 91 | 140 | 1.7 | 1.7 | 0.00 | 0.01 | 0.01 | 66 | |
| 20260509200057 | 90 | 314 | 1.7 | 1.7 | 0.00 | 0.01 | 0.01 | 66 | |
| 20260509195617 | 90 | 314 | 0.9 | 1.7 | 0.00 | 0.01 | 0.01 | 67 | |
| 20260509195057 | 90 | 313 | 1.7 | 1.7 | 0.00 | 0.01 | 0.01 | 67 | |
| 20260509194557 | 90 | 156 | 1.7 | 1.7 | 0.00 | 0.01 | 0.01 | 67 | |
| 20260509194057 | 90 | 145 | 1.7 | 1.7 | 0.00 | 0.01 | 0.01 | 67 | |
| 20260509193658 | 90 | 139 | 0.9 | 1.7 | 0.00 | 0.01 | 0.01 | 66 | |
| 20260509193057 | 90 | 138 | 0.9 | 1.7 | 0.00 | 0.01 | 0.01 | 66 | |
| 20260509192557 | 90 | 137 | 0.9 | 0.9 | 0.00 | 0.01 | 0.01 | 66 | |
| 20260509192057 | 90 | 161 | 0.9 | 0.9 | 0.00 | 0.01 | 0.01 | 67 | |
| 20260509191558 | 90 | 253 | 0.9 | 1.7 | 0.00 | 0.01 | 0.01 | 68 | |
| 20260509191118 | 89 | 76 | 1.7 | 1.7 | 0.00 | 0.01 | 0.01 | 67 | |
| 20260509190558 | 88 | 350 | 0.9 | 0.9 | 0.00 | 0.01 | 0.01 | 67 | |
| 20260509190058 | 87 | 2 | 0.9 | 1.7 | 0.00 | 0.01 | 0.01 | 69 | |
| 20260509185558 | 86 | 14 | 0.9 | 0.9 | 0.00 | 0.01 | 0.01 | 71 | |
| 20260509185058 | 86 | 358 | 0.9 | 1.7 | 0.00 | 0.01 | 0.01 | 71 | |
| 20260509184558 | 86 | 215 | 1.7 | 1.7 | 0.00 | 0.01 | 0.01 | 72 | |
| 20260509184058 | 85 | 204 | 1.7 | 2.6 | 0.00 | 0.01 | 0.01 | 71 | |
| 20260509183558 | 85 | 202 | 1.7 | 2.6 | 0.00 | 0.01 | 0.01 | 72 | |
| 20260509183058 | 86 | 209 | 1.7 | 1.7 | 0.00 | 0.01 | 0.01 | 72 | |
| 20260509182558 | 85 | 275 | 0.9 | 0.9 | 0.00 | 0.01 | 0.01 | 73 | |
| 20260509182058 | 85 | 237 | 0.9 | 1.7 | 0.00 | 0.01 | 0.01 | 73 | |
| 20260509181558 | 84 | 226 | 0.9 | 1.7 | 0.00 | 0.01 | 0.01 | 75 | |
| 20260509181059 | 84 | 197 | 1.7 | 2.6 | 0.00 | 0.01 | 0.01 | 74 | |
| 20260509180559 | 84 | 202 | 1.7 | 2.6 | 0.00 | 0.01 | 0.01 | 74 | |
| 20260509180059 | 84 | 215 | 1.7 | 2.6 | 0.00 | 0.01 | 0.01 | 75 | |
| 20260509175559 | 83 | 208 | 2.6 | 3.5 | 0.00 | 0.01 | 0.01 | 76 | |
| 20260509175059 | 83 | 236 | 1.7 | 1.7 | 0.00 | 0.01 | 0.01 | 77 | |
| 20260509174639 | 82 | 204 | 2.6 | 2.6 | 0.00 | 0.01 | 0.01 | 77 | |
| 20260509174059 | 82 | 214 | 1.7 | 2.6 | 0.00 | 0.01 | 0.01 | 78 | |
| 20260509173619 | 82 | 208 | 2.6 | 2.6 | 0.00 | 0.01 | 0.01 | 77 | |
| 20260509173100 | 82 | 192 | 2.6 | 2.6 | 0.00 | 0.01 | 0.01 | 78 | |
| 20260509172559 | 82 | 160 | 2.6 | 3.5 | 0.00 | 0.01 | 0.01 | 79 | |
| 20260509172100 | 82 | 149 | 2.6 | 2.6 | 0.00 | 0.01 | 0.01 | 79 | |
| 20260509171600 | 82 | 208 | 1.7 | 2.6 | 0.00 | 0.01 | 0.01 | 79 | |
| 20260509171100 | 82 | 185 | 0.9 | 2.6 | 0.00 | 0.01 | 0.01 | 80 | |
| 20260509170600 | 82 | 84 | 1.7 | 1.7 | 0.00 | 0.01 | 0.01 | 81 | |
| 20260509170100 | 82 | 33 | 1.7 | 3.5 | 0.00 | 0.01 | 0.01 | 82 | |
| 20260509165600 | 82 | 35 | 1.7 | 2.6 | 0.00 | 0.01 | 0.01 | 82 | |
| 20260509165100 | 82 | 33 | 1.7 | 2.6 | 0.00 | 0.01 | 0.01 | 83 | |
| 20260509164600 | 82 | 7 | 0.9 | 1.7 | 0.00 | 0.01 | 0.01 | 82 | |
| 20260509164100 | 81 | 7 | 0.9 | 1.7 | 0.00 | 0.01 | 0.01 | 83 | |
| 20260509163600 | 81 | 37 | 0.9 | 1.7 | 0.00 | 0.01 | 0.01 | 84 | |
| 20260509163101 | 81 | 22 | 0.0 | 0.9 | 0.00 | 0.01 | 0.01 | 85 | |
| 20260509162601 | 80 | 329 | 0.9 | 0.9 | 0.00 | 0.01 | 0.01 | 86 | |
| 20260509162100 | 80 | 352 | 0.0 | 0.9 | 0.01 | 0.01 | 0.01 | 86 | |
| 20260509161600 | 80 | 327 | 0.9 | 1.7 | 0.01 | 0.01 | 0.01 | 86 | |
| 20260509161121 | 80 | 318 | 0.9 | 1.7 | 0.01 | 0.01 | 0.01 | 87 | |
| 20260509160601 | 79 | 329 | 0.9 | 0.9 | 0.01 | 0.01 | 0.01 | 88 | |
| 20260509160121 | 79 | 311 | 0.9 | 0.9 | 0.01 | 0.01 | 0.01 | 88 | |
| 20260509155601 | 79 | 346 | 0.9 | 0.9 | 0.01 | 0.01 | 0.01 | 89 | |
| 20260509155101 | 78 | 357 | 0.0 | 0.9 | 0.01 | 0.01 | 0.01 | 90 | |
| 20260509154601 | 78 | 299 | 0.9 | 0.9 | 0.01 | 0.01 | 0.01 | 90 | |
| 20260509154101 | 78 | 268 | 0.0 | 0.9 | 0.01 | 0.01 | 0.01 | 91 | |
| 20260509153602 | 77 | 324 | 0.9 | 0.9 | 0.01 | 0.01 | 0.01 | 91 | |
| 20260509153122 | 77 | 106 | 0.9 | 1.7 | 0.00 | 0.00 | 0.00 | 92 | |
| 20260509152601 | 77 | 37 | 0.9 | 1.7 | 0.00 | 0.00 | 0.00 | 92 | |
| 20260509152102 | 77 | 35 | 1.7 | 1.7 | 0.00 | 0.00 | 0.00 | 93 | |
| 20260509151602 | 77 | 37 | 1.7 | 2.6 | 0.00 | 0.00 | 0.00 | 92 | |
| 20260509151102 | 77 | 41 | 0.9 | 1.7 | 0.00 | 0.00 | 0.00 | 93 | |
| 20260509150602 | 77 | 54 | 0.9 | 1.7 | 0.00 | 0.00 | 0.00 | 94 | |
| 20260509145602 | 76 | 53 | 1.7 | 2.6 | 0.00 | 0.00 | 0.00 | 95 | |
| 20260509144602 | 76 | 52 | 1.7 | 2.6 | 0.00 | 0.00 | 0.00 | 95 | |
| 20260509144102 | 76 | 44 | 1.7 | 2.6 | 0.00 | 0.00 | 0.00 | 96 | |
| 20260509143602 | 76 | 49 | 1.7 | 1.7 | 0.00 | 0.00 | 0.00 | 96 | |
| 20260509143102 | 76 | 28 | 0.9 | 1.7 | 0.00 | 0.00 | 0.00 | 96 | |
| 20260509142603 | 76 | 63 | 1.7 | 1.7 | 0.00 | 0.00 | 0.00 | 96 | |
| 20260509142102 | 76 | 4 | 0.9 | 1.7 | 0.00 | 0.00 | 0.00 | 96 | |
| 20260509141603 | 76 | 324 | 0.9 | 0.9 | 0.00 | 0.00 | 0.00 | 97 | |
| 20260509141103 | 75 | 4 | 0.9 | 0.9 | 0.00 | 0.00 | 0.00 | 97 | |
| 20260509140603 | 75 | 192 | 0.9 | 1.7 | 0.00 | 0.00 | 0.00 | 97 | |
| 20260509140123 | 75 | 50 | 0.9 | 1.7 | 0.00 | 0.00 | 0.00 | 97 | |
| 20260509135603 | 75 | 104 | 1.7 | 2.6 | 0.00 | 0.00 | 0.00 | 97 | |
| 20260509135103 | 75 | 156 | 0.9 | 2.6 | 0.00 | 0.00 | 0.00 | 97 | |
| 20260509134623 | 75 | 160 | 2.6 | 2.6 | 0.00 | 0.00 | 0.00 | 97 | |
| 20260509134104 | 75 | 157 | 0.9 | 1.7 | 0.00 | 0.00 | 0.00 | 97 | |
| 20260509133603 | 75 | 162 | 0.9 | 1.7 | 0.00 | 0.00 | 0.00 | 98 | |
| 20260509133103 | 75 | 244 | 1.7 | 2.6 | 0.00 | 0.00 | 0.00 | 98 | |
| 20260509132624 | 75 | 202 | 2.6 | 2.6 | 0.00 | 0.00 | 0.00 | 98 | |
| 20260509132104 | 75 | 212 | 0.9 | 2.6 | 0.00 | 0.00 | 0.00 | 99 | |
| 20260509131604 | 75 | 192 | 1.7 | 2.6 | 0.00 | 0.00 | 0.00 | 99 | |
| 20260509131104 | 75 | 212 | 1.7 | 2.6 | 0.00 | 0.00 | 0.00 | 99 | |
| 20260509130604 | 75 | 207 | 1.7 | 2.6 | 0.00 | 0.00 | 0.00 | 100 | |
| 20260509130104 | 75 | 192 | 1.7 | 2.6 | 0.00 | 0.00 | 0.00 | 100 | |
| 20260509125604 | 75 | 158 | 1.7 | 2.6 | 0.00 | 0.00 | 0.00 | 100 | |
| 20260509125104 | 75 | 254 | 0.9 | 1.7 | 0.00 | 0.00 | 0.00 | 100 | |
| 20260509124604 | 74 | 208 | 1.7 | 2.6 | 0.00 | 0.00 | 0.00 | 100 | |
| 20260509124125 | 74 | 247 | 1.7 | 1.7 | 0.00 | 0.00 | 0.00 | 100 | |
| 20260509123605 | 74 | 118 | 0.9 | 1.7 | 0.00 | 0.00 | 0.00 | 100 | |
| 20260509123105 | 74 | 206 | 1.7 | 1.7 | 0.00 | 0.00 | 0.00 | 100 | |
| 20260509122604 | 74 | 291 | 1.7 | 2.6 | 0.00 | 0.00 | 0.00 | 100 | |
| 20260509122125 | 74 | 320 | 0.9 | 1.7 | 0.00 | 0.00 | 0.00 | 100 | |
| 20260509121605 | 74 | 291 | 0.9 | 1.7 | 0.00 | 0.00 | 0.00 | 100 | |
| 20260509121105 | 74 | 316 | 0.9 | 1.7 | 0.00 | 0.00 | 0.00 | 100 | |
| 20260509120605 | 74 | 334 | 0.9 | 0.9 | 0.00 | 0.00 | 0.00 | 100 | |
| 20260509120105 | 74 | 323 | 0.9 | 1.7 | 0.00 | 0.00 | 0.00 | 99 | |
| 20260509115605 | 74 | 329 | 0.9 | 0.9 | 0.00 | 0.00 | 0.00 | 99 | |
| 20260509115106 | 74 | 343 | 0.9 | 1.7 | 0.00 | 0.00 | 0.00 | 99 | |
| 20260509114605 | 74 | 340 | 0.9 | 1.7 | 0.00 | 0.00 | 0.00 | 99 | |
| 20260509114106 | 74 | 334 | 0.9 | 1.7 | 0.00 | 0.00 | 0.00 | 99 | |
| 20260509113606 | 74 | 331 | 0.9 | 1.7 | 0.00 | 0.00 | 0.00 | 99 | |
| 20260509113106 | 74 | 344 | 1.7 | 1.7 | 0.00 | 0.00 | 0.00 | 99 | |
| 20260509112606 | 74 | 304 | 0.9 | 0.9 | 0.00 | 0.00 | 0.00 | 99 | |
| 20260509112106 | 74 | 327 | 0.9 | 1.7 | 0.00 | 0.00 | 0.00 | 99 | |
| 20260509111606 | 74 | 349 | 1.7 | 1.7 | 0.00 | 0.00 | 0.00 | 99 | |
| 20260509111106 | 74 | 222 | 1.7 | 1.7 | 0.00 | 0.00 | 0.00 | 99 | |
| 20260509110606 | 74 | 196 | 2.6 | 2.6 | 0.00 | 0.00 | 0.00 | 99 | |
| 20260509110106 | 74 | 264 | 2.6 | 2.6 | 0.00 | 0.00 | 0.00 | 99 | |
| 20260509105606 | 74 | 296 | 0.9 | 0.9 | 0.00 | 0.00 | 0.00 | 99 | |
| 20260509105126 | 74 | 318 | 0.9 | 0.9 | 0.00 | 0.00 | 0.00 | 99 | |
| 20260509104606 | 74 | 335 | 0.9 | 1.7 | 0.00 | 0.00 | 0.00 | 99 | |
| 20260509104108 | 74 | 327 | 0.9 | 0.9 | 0.00 | 0.00 | 0.00 | 99 | |
| 20260509103606 | 74 | 222 | 1.7 | 2.6 | 0.00 | 0.00 | 0.00 | 99 | |
| 20260509103112 | 74 | 224 | 0.9 | 1.7 | 0.00 | 0.00 | 0.00 | 99 | |
| 20260509102606 | 75 | 318 | 0.9 | 0.9 | 0.00 | 0.00 | 0.00 | 99 | |
| 20260509102107 | 75 | 178 | 0.9 | 1.7 | 0.00 | 0.00 | 0.00 | 98 | |
| 20260509101647 | 75 | 261 | 0.9 | 1.7 | 0.00 | 0.00 | 0.00 | 98 | |
| 20260509101107 | 75 | 292 | 0.9 | 1.7 | 0.00 | 0.00 | 0.00 | 98 | |
| 20260509100627 | 75 | 265 | 0.9 | 0.9 | 0.00 | 0.00 | 0.00 | 98 | |
| 20260509100107 | 75 | 286 | 0.9 | 0.9 | 0.00 | 0.00 | 0.00 | 98 | |
| 20260509095607 | 75 | 347 | 0.9 | 0.9 | 0.00 | 0.00 | 0.00 | 98 | |
| 20260509095107 | 75 | 323 | 0.9 | 0.9 | 0.00 | 0.00 | 0.00 | 98 | |
| 20260509094607 | 75 | 337 | 0.9 | 0.9 | 0.00 | 0.00 | 0.00 | 98 | |
| 20260509094107 | 75 | 332 | 0.9 | 0.9 | 0.00 | 0.00 | 0.00 | 99 | |
| 20260509093628 | 75 | 316 | 0.0 | 0.9 | 0.00 | 0.00 | 0.00 | 99 | |
| 20260509093108 | 75 | 335 | 0.0 | 0.9 | 0.00 | 0.00 | 0.00 | 99 | |
| 20260509092608 | 75 | 5 | 0.9 | 1.7 | 0.00 | 0.00 | 0.00 | 99 | |
| 20260509092108 | 75 | 17 | 0.9 | 1.7 | 0.00 | 0.00 | 0.00 | 99 | |
| 20260509091608 | 75 | 60 | 1.7 | 1.7 | 0.00 | 0.00 | 0.00 | 99 | |
| 20260509091108 | 75 | 358 | 0.9 | 0.9 | 0.00 | 0.00 | 0.00 | 99 | |
| 20260509090608 | 75 | 326 | 0.9 | 0.9 | 0.00 | 0.00 | 0.00 | 99 | |
| 20260509090148 | 75 | 279 | 0.9 | 0.9 | 0.00 | 0.00 | 0.00 | 99 | |
| 20260509085608 | 75 | 278 | 0.9 | 0.9 | 0.00 | 0.00 | 0.00 | 99 | |
| 20260509085108 | 75 | 326 | 0.9 | 0.9 | 0.00 | 0.00 | 0.00 | 99 | |
| 20260509084608 | 75 | 323 | 0.9 | 0.9 | 0.00 | 0.00 | 0.00 | 99 | |
| 20260509084109 | 75 | 207 | 0.9 | 1.7 | 0.00 | 0.00 | 0.00 | 99 | |
| 20260509083629 | 75 | 299 | 0.9 | 1.7 | 0.00 | 0.00 | 0.00 | 99 | |
| 20260509083109 | 75 | 190 | 0.9 | 1.7 | 0.00 | 0.00 | 0.00 | 99 | |
| 20260509082609 | 75 | 246 | 0.9 | 0.9 | 0.00 | 0.00 | 0.00 | 99 | |
| 20260509082129 | 75 | 357 | 0.9 | 1.7 | 0.00 | 0.00 | 0.00 | 99 | |
| 20260509081629 | 75 | 7 | 0.9 | 1.7 | 0.00 | 0.00 | 0.00 | 99 | |
| 20260509081109 | 75 | 349 | 0.9 | 1.7 | 0.00 | 0.00 | 0.00 | 99 | |
| 20260509080609 | 75 | 39 | 0.9 | 1.7 | 0.00 | 0.00 | 0.00 | 99 | |
| 20260509080109 | 75 | 75 | 1.7 | 1.7 | 0.00 | 0.00 | 0.00 | 99 | |
| 20260509075609 | 75 | 97 | 1.7 | 1.7 | 0.00 | 0.00 | 0.00 | 99 | |
| 20260509075109 | 74 | 81 | 1.7 | 1.7 | 0.00 | 0.00 | 0.00 | 99 | |
| 20260509074651 | 74 | 127 | 1.7 | 1.7 | 0.00 | 0.00 | 0.00 | 99 | |
| 20260509074109 | 74 | 154 | 2.6 | 3.5 | 0.00 | 0.00 | 0.00 | 99 | |
| 20260509073609 | 74 | 148 | 2.6 | 3.5 | 0.00 | 0.00 | 0.00 | 99 | |
| 20260509073110 | 74 | 162 | 3.5 | 4.3 | 0.00 | 0.00 | 0.00 | 99 | |
| 20260509072610 | 74 | 147 | 2.6 | 3.5 | 0.00 | 0.00 | 0.00 | 99 | |
| 20260509072150 | 74 | 167 | 2.6 | 2.6 | 0.00 | 0.00 | 0.00 | 99 | |
| 20260509071630 | 74 | 153 | 3.5 | 4.3 | 0.00 | 0.00 | 0.00 | 99 | |
| 20260509071110 | 74 | 160 | 3.5 | 4.3 | 0.00 | 0.00 | 0.00 | 99 | |
| 20260509070650 | 74 | 134 | 2.6 | 2.6 | 0.00 | 0.00 | 0.00 | 99 | |
| 20260509070110 | 74 | 125 | 2.6 | 3.5 | 0.00 | 0.00 | 0.00 | 98 | |
| 20260509065610 | 74 | 165 | 2.6 | 3.5 | 0.00 | 0.00 | 0.00 | 98 | |
| 20260509065110 | 74 | 160 | 2.6 | 4.3 | 0.00 | 0.00 | 0.00 | 98 | |
| 20260509064611 | 74 | 155 | 2.6 | 3.5 | 0.00 | 0.00 | 0.00 | 98 | |
| 20260509064110 | 74 | 76 | 1.7 | 1.7 | 0.00 | 0.00 | 0.00 | 98 | |
| 20260509063631 | 74 | 106 | 1.7 | 1.7 | 0.00 | 0.00 | 0.00 | 98 | |
| 20260509063110 | 74 | 116 | 2.6 | 3.5 | 0.00 | 0.00 | 0.00 | 98 | |
| 20260509062611 | 74 | 32 | 1.7 | 1.7 | 0.00 | 0.00 | 0.00 | 98 | |
| 20260509062111 | 74 | 77 | 1.7 | 2.6 | 0.00 | 0.00 | 0.00 | 98 | |
| 20260509061611 | 74 | 52 | 1.7 | 2.6 | 0.00 | 0.00 | 0.00 | 98 | |
| 20260509061111 | 74 | 93 | 1.7 | 2.6 | 0.00 | 0.00 | 0.00 | 97 | |
| 20260509060611 | 74 | 72 | 1.7 | 2.6 | 0.00 | 0.00 | 0.00 | 97 | |
| 20260509060111 | 74 | 72 | 2.6 | 3.5 | 0.00 | 0.00 | 0.00 | 97 | |
| 20260509055611 | 74 | 75 | 1.7 | 2.6 | 0.00 | 0.00 | 0.00 | 97 | |
| 20260509055111 | 74 | 48 | 1.7 | 2.6 | 0.00 | 0.00 | 0.00 | 97 | |
| 20260509054611 | 74 | 68 | 1.7 | 1.7 | 0.00 | 0.00 | 0.00 | 97 | |
| 20260509054112 | 74 | 40 | 2.6 | 3.5 | 0.00 | 0.00 | 0.00 | 97 | |
| 20260509053653 | 74 | 80 | 1.7 | 2.6 | 0.00 | 0.00 | 0.00 | 97 | |
| 20260509053132 | 74 | 42 | 2.6 | 3.5 | 0.00 | 0.00 | 0.00 | 97 | |
| 20260509052612 | 74 | 28 | 2.6 | 2.6 | 0.00 | 0.00 | 0.00 | 97 | |
| 20260509052112 | 74 | 33 | 2.6 | 2.6 | 0.00 | 0.00 | 0.00 | 97 | |
| 20260509051612 | 74 | 25 | 2.6 | 3.5 | 0.00 | 0.00 | 0.00 | 97 | |
| 20260509051112 | 74 | 52 | 2.6 | 2.6 | 0.00 | 0.00 | 0.00 | 97 | |
| 20260509050613 | 74 | 54 | 1.7 | 2.6 | 0.00 | 0.00 | 0.00 | 97 | |
| 20260509050132 | 74 | 60 | 1.7 | 2.6 | 0.00 | 0.00 | 0.00 | 97 | |
| 20260509045612 | 74 | 55 | 2.6 | 2.6 | 0.00 | 0.00 | 0.00 | 96 | |
| 20260509045132 | 74 | 34 | 1.7 | 2.6 | 0.00 | 0.00 | 0.00 | 96 | |
| 20260509044612 | 74 | 60 | 1.7 | 2.6 | 0.00 | 0.00 | 0.00 | 96 | |
| 20260509044112 | 74 | 45 | 2.6 | 3.5 | 0.00 | 0.00 | 0.00 | 96 | |
| 20260509043612 | 74 | 30 | 2.6 | 2.6 | 0.00 | 0.00 | 0.00 | 96 | |
| 20260509043112 | 74 | 23 | 2.6 | 3.5 | 0.00 | 0.00 | 0.00 | 96 | |
| 20260509042633 | 74 | 43 | 1.7 | 3.5 | 0.00 | 0.00 | 0.00 | 95 | |
| 20260509042112 | 74 | 36 | 2.6 | 2.6 | 0.00 | 0.00 | 0.00 | 95 | |
| 20260509041613 | 74 | 50 | 2.6 | 3.5 | 0.00 | 0.00 | 0.00 | 95 | |
| 20260509041113 | 74 | 60 | 1.7 | 1.7 | 0.00 | 0.00 | 0.00 | 95 | |
| 20260509040613 | 74 | 66 | 1.7 | 1.7 | 0.00 | 0.00 | 0.00 | 95 | |
| 20260509040113 | 74 | 75 | 1.7 | 2.6 | 0.00 | 0.00 | 0.00 | 95 | |
| 20260509035613 | 74 | 29 | 1.7 | 2.6 | 0.00 | 0.00 | 0.00 | 95 | |
| 20260509035113 | 74 | 37 | 1.7 | 2.6 | 0.00 | 0.00 | 0.00 | 95 | |
| 20260509034613 | 74 | 31 | 2.6 | 3.5 | 0.00 | 0.00 | 0.00 | 95 | |
| 20260509034113 | 74 | 23 | 2.6 | 2.6 | 0.00 | 0.00 | 0.00 | 94 |